Weather History for Red Bluff, CA

Change the Weather History Date:

Tuesday, January 22, 2013

  Actual Average Record
Temperature  
Mean Temperature 46 °F -  
Max Temperature 61 °F 57 °F 79 °F (2014)
Min Temperature 32 °F 39 °F 22 °F (1937)
Degree Days  
Heating Degree Days 18    
Moisture  
Dew Point 31 °F    
Average Humidity 59    
Maximum Humidity 79    
Minimum Humidity 24    
Precipitation  
Precipitation 0.00 in - - ()
Sea Level Pressure  
Sea Level Pressure 30.11 in    
Wind  
Wind Speed 5 mph (NNW)    
Max Wind Speed 8 mph    
Max Gust Speed -    
Visibility 10 miles    
Events      
Averages and records for this station are not official NWS values.
T = Trace of Precipitation, MM = Missing Value Source: NWS Daily Summary

Daily Weather History Graph

Daily Weather History Graph

Search for Another Location

Airport:

Trip Planner

Search our weather history database for the weather conditions in past years. The results will help you decide how hot, cold, wet, or windy it might be!

Date:

Astronomy

Jan. 22, 2013 Rise Set
Actual Time 7:25 AM PST 5:16 PM PST
Civil Twilight 6:56 AM PST 5:45 PM PST
Nautical Twilight 6:23 AM PST 6:18 PM PST
Astronomical Twilight 5:50 AM PST 6:50 PM PST
Moon 1:43 PM PST (1/22) 3:51 AM PST (1/22)
Length of Visible Light 10h 49m
Length of Day
9h 50m
Waxing Gibbous, 83% of the Moon is Illuminated
Jan 22
Waxing Gibbous
Jan 26
Full
Feb 3
Last Quarter
Feb 9
New
Feb 17
First Quarter

Hourly Weather History & Observations

Time (PST) Temp. Windchill Dew Point Humidity Pressure Visibility Wind Dir Wind Speed Gust Speed Precip Events Conditions
12:54 AM 36.0 °F 31.1 °F 28.9 °F 76% 30.16 in 10.0 mi NW 5.8 mph - N/A   Clear
1:54 AM 36.0 °F 32.1 °F 28.9 °F 76% 30.15 in 10.0 mi NNW 4.6 mph - N/A   Clear
2:54 AM 35.1 °F 29.3 °F 28.0 °F 76% 30.15 in 10.0 mi North 6.9 mph - N/A   Clear
3:54 AM 36.0 °F 30.3 °F 28.0 °F 73% 30.14 in 10.0 mi NNW 6.9 mph - N/A   Clear
4:54 AM 36.0 °F 29.6 °F 27.0 °F 70% 30.13 in 10.0 mi NW 8.1 mph - N/A   Clear
5:54 AM 35.1 °F 29.3 °F 27.0 °F 72% 30.13 in 10.0 mi NNW 6.9 mph - N/A   Clear
6:54 AM 32.0 °F 26.4 °F 26.1 °F 79% 30.14 in 10.0 mi North 5.8 mph - N/A   Clear
7:54 AM 35.1 °F 29.3 °F 27.0 °F 72% 30.14 in 10.0 mi NNW 6.9 mph - N/A   Clear
8:54 AM 37.9 °F 33.5 °F 28.9 °F 70% 30.15 in 10.0 mi NNW 5.8 mph - N/A   Clear
9:54 AM 46.9 °F - 30.9 °F 54% 30.15 in 10.0 mi North 5.8 mph - N/A   Clear
10:54 AM 52.0 °F - 30.0 °F 43% 30.17 in 10.0 mi North 5.8 mph - N/A   Clear
11:54 AM 54.0 °F - 28.0 °F 37% 30.14 in 10.0 mi East 4.6 mph - N/A   Clear
12:54 PM 57.9 °F - 30.0 °F 35% 30.12 in 10.0 mi East 3.5 mph - N/A   Clear
1:54 PM 59.0 °F - 28.9 °F 32% 30.09 in 10.0 mi Calm Calm - N/A   Clear
2:54 PM 61.0 °F - 28.9 °F 30% 30.07 in 10.0 mi Calm Calm - N/A   Clear
3:54 PM 59.0 °F - 32.0 °F 36% 30.06 in 10.0 mi Calm Calm - N/A   Clear
4:54 PM 55.0 °F - 37.0 °F 51% 30.05 in 10.0 mi Calm Calm - N/A   Clear
5:54 PM 50.0 °F - 35.1 °F 57% 30.05 in 10.0 mi WNW 5.8 mph - N/A   Clear
6:54 PM 46.9 °F - 35.1 °F 63% 30.05 in 10.0 mi Calm Calm - N/A   Clear
7:54 PM 46.0 °F 44.8 °F 35.1 °F 66% 30.05 in 10.0 mi WNW 3.5 mph - N/A   Clear
8:54 PM 42.1 °F - 34.0 °F 73% 30.06 in 10.0 mi Calm Calm - N/A   Clear
9:54 PM 42.1 °F 37.7 °F 34.0 °F 73% 30.07 in 10.0 mi West 6.9 mph - N/A   Clear
10:54 PM 41.0 °F - 32.0 °F 70% 30.09 in 10.0 mi Calm Calm - N/A   Clear
11:54 PM 37.9 °F 35.5 °F 32.0 °F 79% 30.08 in 10.0 mi NW 3.5 mph - N/A   Clear